[TLELIST] Archives

 

[list_settings.list_name] Current TLEs

December 7th 2022 PST

HST 1 20580U 90037B 22340.77531222 .00002512 00000-0 13455-3 0 9995 2 20580 28.4694 106.3735 0002885 96.4347 52.8958 15.11354058592579 ISS (ZARYA) 1 25544U 98067A 22341.19407137 .00009393 00000-0 17365-3 0 9993 2 25544 51.6441 199.5314 0004386 134.5777 13.0975 15.49784234372015 CXO 1 25867U 99040B 22342.57103555 .00000379 00000-0 00000+0 0 9992 2 25867 40.7553 219.5389 8978153 244.5323 359.8109 0.37806251 23614 ____________________________________________________________________ These 2-Line ...Continue Reading

[list_settings.list_name] Current TLEs

December 6th 2022 PST

HST 1 20580U 90037B 22339.69547740 .00002483 00000-0 13285-3 0 9994 2 20580 28.4692 113.5374 0002884 85.9811 296.4464 15.11348647592142 ISS (ZARYA) 1 25544U 98067A 22340.36013760 .00009929 00000-0 18317-3 0 9999 2 25544 51.6440 203.6627 0004360 131.5116 40.4191 15.49770206371886 CXO 1 25867U 99040B 22339.92723601 .00000304 00000-0 00000+0 0 9995 2 25867 40.8198 219.8285 8975616 244.3042 359.9471 0.37808834 23606 ____________________________________________________________________ These 2-Line ...Continue Reading

[list_settings.list_name] Current TLEs

December 5th 2022 PST

HST 1 20580U 90037B 22338.58323963 .00002110 00000-0 11135-3 0 9999 2 20580 28.4689 120.9166 0002819 75.5142 3.3828 15.11342082591975 ISS (ZARYA) 1 25544U 98067A 22339.39297438 .00010725 00000-0 19732-3 0 9994 2 25544 51.6441 208.4527 0004285 127.9971 44.4395 15.49752773371736 CXO 1 25867U 99040B 22339.92723601 .00000304 00000-0 00000-0 0 9996 2 25867 40.8198 219.8285 8975616 244.3042 359.9471 0.37808834 12446 ____________________________________________________________________ These 2-Line ...Continue Reading

[list_settings.list_name] Current TLEs

December 4th 2022 PST

HST 1 20580U 90037B 22338.13642447 .00002085 00000-0 10990-3 0 9990 2 20580 28.4688 123.8809 0002816 70.9390 92.0862 15.11340185592179 ISS (ZARYA) 1 25544U 98067A 22338.39281250 .00010905 00000-0 20063-3 0 9997 2 25544 51.6438 213.4049 0004502 124.6611 224.1234 15.49731628371571 CXO 1 25867U 99040B 22339.92723601 .00000304 00000-0 00000-0 0 9996 2 25867 40.8198 219.8285 8975616 244.3042 359.9471 0.37808834 12446 ____________________________________________________________________ These 2-Line ...Continue Reading

[list_settings.list_name] Current TLEs

December 3rd 2022 PST

HST 1 20580U 90037B 22336.87486571 .00002045 00000-0 10761-3 0 9995 2 20580 28.4686 132.2502 0002780 58.5807 66.9043 15.11334877591975 ISS (ZARYA) 1 25544U 98067A 22337.42322917 .00011307 00000-0 20786-3 0 9995 2 25544 51.6435 218.2078 0004499 120.7468 215.1671 15.49710876371426 CXO 1 25867U 99040B 22339.92687549 .00000304 00000-0 00000+0 0 9995 2 25867 40.8196 219.8283 8975630 244.3042 359.8992 0.37808399 23601 ____________________________________________________________________ These 2-Line ...Continue Reading

[list_settings.list_name] Current TLEs

December 2nd 2022 PST

HST 1 20580U 90037B 22335.72989307 .00002088 00000-0 11009-3 0 9996 2 20580 28.4684 139.8463 0002765 46.7759 316.7735 15.11330628591547 ISS (ZARYA) 1 25544U 98067A 22336.45752315 .00015964 00000-0 29014-3 0 9992 2 25544 51.6435 222.9912 0004522 115.7401 229.0311 15.49697316371274 CXO 1 25867U 99040B 22337.28302966 .00000365 00000-0 00000+0 0 9996 2 25867 40.8867 220.1211 8971382 244.0787 0.0161 0.37808124 23592 ____________________________________________________________________ These 2-Line ...Continue Reading

[list_settings.list_name] Current TLEs

December 1st 2022 PST

HST 1 20580U 90037B 22334.80825095 .00001975 00000-0 10358-3 0 9997 2 20580 28.4683 145.9608 0002743 37.3979 341.7382 15.11326444591403 ISS (ZARYA) 1 25544U 98067A 22335.45933344 .00009024 00000-0 16786-3 0 9996 2 25544 51.6453 227.9341 0004477 115.9922 56.3514 15.49661165371127 CXO 1 25867U 99040B 22331.99533054 .00000669 00000-0 00000-0 0 9990 2 25867 40.9734 220.5714 8963614 243.7643 0.0925 0.37813653 12414 ____________________________________________________________________ These 2-Line ...Continue Reading

[list_settings.list_name] Current TLEs

November 30th 2022 PST

HST 1 20580U 90037B 22333.90109122 .00002081 00000-0 10973-3 0 9995 2 20580 28.4683 151.9792 0002712 28.0428 85.6470 15.11323726591521 ISS (ZARYA) 1 25544U 98067A 22334.46045139 .00013904 00000-0 24788-3 0 9995 2 25544 51.6439 232.8753 0007110 130.3490 225.6604 15.50360261370968 CXO 1 25867U 99040B 22331.99533054 .00000669 00000-0 00000-0 0 9990 2 25867 40.9734 220.5714 8963614 243.7643 0.0925 0.37813653 12414 ____________________________________________________________________ These 2-Line ...Continue Reading

[list_settings.list_name] Current TLEs

November 29th 2022 PST

HST 1 20580U 90037B 22332.84738928 .00001852 00000-0 96485-4 0 9997 2 20580 28.4683 158.9697 0002669 16.9131 112.4552 15.11318559591371 ISS (ZARYA) 1 25544U 98067A 22333.26332236 .00015004 00000-0 26710-3 0 9999 2 25544 51.6439 238.8086 0007117 126.4844 23.6612 15.50329989370786 CXO 1 25867U 99040B 22331.99533054 .00000669 00000-0 00000-0 0 9990 2 25867 40.9734 220.5714 8963614 243.7643 0.0925 0.37813653 12414 ____________________________________________________________________ These 2-Line ...Continue Reading

[list_settings.list_name] Current TLEs

November 28th 2022 PST

HST 1 20580U 90037B 22331.83767340 .00001926 00000-0 10076-3 0 9998 2 20580 28.4684 165.6682 0002627 6.1181 18.7387 15.11315382590959 ISS (ZARYA) 1 25544U 98067A 22332.29584912 .00014652 00000-0 26131-3 0 9996 2 25544 51.6442 243.6030 0007067 122.8122 24.1689 15.50299359370637 CXO 1 25867U 99040B 22331.99533054 .00000669 00000-0 00000-0 0 9990 2 25867 40.9734 220.5714 8963614 243.7643 0.0925 0.37813653 12414 ____________________________________________________________________ These 2-Line ...Continue Reading
  • This mailing list is a public mailing list - anyone may join or leave, at any time.
  • This mailing list is announce-only.

International Space Station (ISS) / Hubble Space Telescope (HST) / Chandra X-Ray Observatory Orbital Data via EMAIL

Privacy Policy:

Private list